User: anonymous   Login
Location: Unspecified
(0.0000°N, 0.0000°E)
Time: 14:41:33
(UTC+01:00)
Language:

AO-40 - Orbit

View from above orbital plane
View from above orbital plane
View from above satellite
View from above satellite

Ground track
Ground track

The orbit data is extracted from the following two-line orbital elements,

1 26609U 00072B   14302.56445030  .00000000  00000-0  10000-3 0   668
2 26609 008.5681 025.6790 7942778 164.7954 253.6852 01.25582977 64245
Epoch (UTC): 29 October 2014 13:32:48
Eccentricity: 0.7942778
inclination: 8.5681°
perigee height: 1087 km
apogee height: 58735 km
right ascension of ascending node: 25.6790°
argument of perigee: 164.7954°
revolutions per day: 1.25582977
mean anomaly at epoch: 253.6852°
orbit number at epoch: 6424

The dashed part of the orbit path shows where the satellite is in the earth's shadow,  

DLR